Time,TemperatureF,DewpointF,PressureIn,WindDirection,WindDirectionDegrees,WindSpeedMPH,WindSpeedGustMPH,Humidity,HourlyPrecipIn,Conditions,Clouds,dailyrainin,SolarRadiationWatts/m^2,SoftwareType,DateUTC
2013-04-15 00:00:00,70.7,63.5,29.61,SSE,155,6.0,12.0,78,0.00,,---,0.00,0.00,VWS V14.00,2013-04-15 05:00:00,
2013-04-15 00:01:00,70.7,63.5,29.61,SSE,152,5.0,5.0,78,0.00,,---,0.00,0.00,VWS V14.00,2013-04-15 05:01:00,
2013-04-15 00:05:00,70.7,63.5,29.61,SSE,163,6.0,9.0,78,0.00,,---,0.00,0.00,VWS V14.00,2013-04-15 05:05:00,
2013-04-15 00:09:00,70.8,63.6,29.61,SSE,159,4.0,10.0,78,0.00,,---,0.00,0.00,VWS V14.00,2013-04-15 05:09:00,
2013-04-15 00:13:00,70.8,63.2,29.61,SSE,157,4.0,10.0,77,0.00,,---,0.00,0.00,VWS V14.00,2013-04-15 05:13:00,
2013-04-15 00:17:00,70.6,63.4,29.61,SE,140,6.0,10.0,78,0.00,,---,0.00,0.00,VWS V14.00,2013-04-15 05:17:00,
2013-04-15 00:21:00,70.6,63.4,29.61,SSE,156,7.0,10.0,78,0.00,,---,0.00,0.00,VWS V14.00,2013-04-15 05:21:00,
2013-04-15 00:25:00,70.6,63.4,29.61,SSE,163,5.0,10.0,78,0.00,,---,0.00,0.00,VWS V14.00,2013-04-15 05:25:00,
2013-04-15 00:29:00,70.5,63.3,29.61,SSE,149,5.0,10.0,78,0.00,,---,0.00,0.00,VWS V14.00,2013-04-15 05:29:00,
2013-04-15 00:30:00,70.5,63.7,29.61,SE,142,6.0,10.0,79,0.00,,---,0.00,0.00,VWS V14.00,2013-04-15 05:30:00,
2013-04-15 00:33:00,70.4,63.2,29.61,SSE,154,7.0,10.0,78,0.00,,---,0.00,0.00,VWS V14.00,2013-04-15 05:33:00,
2013-04-15 00:37:00,70.5,63.7,29.61,SSE,154,6.0,10.0,79,0.00,,---,0.00,0.00,VWS V14.00,2013-04-15 05:37:00,
2013-04-15 00:41:00,70.4,63.6,29.61,SSE,155,5.0,10.0,79,0.00,,---,0.00,0.00,VWS V14.00,2013-04-15 05:41:00,
2013-04-15 00:45:00,70.2,63.4,29.62,SSE,151,9.0,10.0,79,0.00,,---,0.00,0.00,VWS V14.00,2013-04-15 05:45:00,
2013-04-15 00:49:00,70.3,63.8,29.62,SSE,159,4.0,10.0,80,0.00,,---,0.00,0.00,VWS V14.00,2013-04-15 05:49:00,
2013-04-15 00:53:00,70.3,63.5,29.62,South,182,5.0,10.0,79,0.00,,---,0.00,0.00,VWS V14.00,2013-04-15 05:53:00,
2013-04-15 00:57:00,70.1,63.3,29.62,SSE,156,4.0,10.0,79,0.00,,---,0.00,0.00,VWS V14.00,2013-04-15 05:57:00,
2013-04-15 01:00:00,70.1,63.7,29.61,South,170,6.0,10.0,80,0.00,,---,0.00,0.00,VWS V14.00,2013-04-15 06:00:00,
2013-04-15 01:01:00,70.1,63.7,29.61,SSE,149,9.0,9.0,80,0.00,,---,0.00,0.00,VWS V14.00,2013-04-15 06:01:00,
2013-04-15 01:05:00,70.1,63.7,29.61,SSE,150,10.0,10.0,80,0.00,,---,0.00,0.00,VWS V14.00,2013-04-15 06:05:00,
2013-04-15 01:09:00,70.1,63.7,29.61,SSE,167,4.0,11.0,80,0.00,,---,0.00,0.00,VWS V14.00,2013-04-15 06:09:00,
2013-04-15 01:13:00,69.9,63.8,29.61,SSE,163,6.0,13.0,81,0.00,,---,0.00,0.00,VWS V14.00,2013-04-15 06:13:00,
2013-04-15 01:17:00,69.8,63.7,29.61,SSE,165,6.0,13.0,81,0.00,,---,0.00,0.00,VWS V14.00,2013-04-15 06:17:00,
2013-04-15 01:21:00,69.6,63.9,29.61,SSE,164,6.0,13.0,82,0.00,,---,0.00,0.00,VWS V14.00,2013-04-15 06:21:00,
2013-04-15 01:25:00,69.5,63.8,29.61,SSE,164,6.0,13.0,82,0.00,,---,0.00,0.00,VWS V14.00,2013-04-15 06:25:00,
2013-04-15 01:30:00,69.4,63.7,29.61,SSE,160,7.0,13.0,82,0.00,,---,0.00,0.00,VWS V14.00,2013-04-15 06:30:00,
2013-04-15 01:34:00,69.1,63.7,29.61,South,171,8.0,9.0,83,0.00,,---,0.00,0.00,VWS V14.00,2013-04-15 06:34:00,
2013-04-15 01:38:00,69.1,63.7,29.61,SSE,153,5.0,11.0,83,0.00,,---,0.00,0.00,VWS V14.00,2013-04-15 06:38:00,
2013-04-15 01:42:00,69.0,64.0,29.61,SSE,161,10.0,12.0,84,0.00,,---,0.00,0.00,VWS V14.00,2013-04-15 06:42:00,
2013-04-15 01:46:00,69.0,64.0,29.61,South,171,9.0,12.0,84,0.00,,---,0.00,0.00,VWS V14.00,2013-04-15 06:46:00,
2013-04-15 01:50:00,69.2,64.5,29.61,South,175,6.0,17.0,85,0.00,,---,0.00,0.00,VWS V14.00,2013-04-15 06:50:00,
2013-04-15 01:54:00,69.0,64.0,29.61,South,178,5.0,17.0,84,0.00,,---,0.00,0.00,VWS V14.00,2013-04-15 06:54:00,
2013-04-15 02:31:00,68.7,64.7,29.61,SSE,163,10.0,10.0,87,0.00,,---,0.00,0.00,VWS V14.00,2013-04-15 07:31:00,
2013-04-15 02:35:00,68.6,64.6,29.61,SSE,166,4.0,10.0,87,0.00,,---,0.00,0.00,VWS V14.00,2013-04-15 07:35:00,
2013-04-15 02:39:00,68.5,64.5,29.61,SSE,168,6.0,10.0,87,0.00,,---,0.00,0.00,VWS V14.00,2013-04-15 07:39:00,
2013-04-15 02:43:00,68.6,64.6,29.61,SSE,154,11.0,13.0,87,0.00,,---,0.00,0.00,VWS V14.00,2013-04-15 07:43:00,
2013-04-15 02:47:00,68.7,64.7,29.61,SSE,165,7.0,13.0,87,0.00,,---,0.00,0.00,VWS V14.00,2013-04-15 07:47:00,
2013-04-15 02:51:00,68.6,64.6,29.61,SSE,153,8.0,13.0,87,0.00,,---,0.00,0.00,VWS V14.00,2013-04-15 07:51:00,
2013-04-15 02:55:00,68.6,64.6,29.61,SSE,165,5.0,13.0,87,0.00,,---,0.00,0.00,VWS V14.00,2013-04-15 07:55:00,
2013-04-15 02:59:00,68.4,64.7,29.61,SSE,151,6.0,13.0,88,0.00,,---,0.00,0.00,VWS V14.00,2013-04-15 07:59:00,
2013-04-15 03:00:00,68.4,64.4,29.61,South,175,5.0,13.0,87,0.00,,---,0.00,0.00,VWS V14.00,2013-04-15 08:00:00,
2013-04-15 03:03:00,68.4,64.7,29.61,SSE,163,7.0,10.0,88,0.00,,---,0.00,0.00,VWS V14.00,2013-04-15 08:03:00,
2013-04-15 03:07:00,68.4,64.7,29.61,South,179,6.0,10.0,88,0.00,,---,0.00,0.00,VWS V14.00,2013-04-15 08:07:00,
2013-04-15 03:11:00,68.4,64.7,29.61,SSE,163,7.0,10.0,88,0.00,,---,0.00,0.00,VWS V14.00,2013-04-15 08:11:00,
2013-04-15 03:15:00,68.4,64.7,29.60,SSE,162,4.0,10.0,88,0.00,,---,0.00,0.00,VWS V14.00,2013-04-15 08:15:00,
2013-04-15 03:19:00,68.3,64.6,29.60,SSE,157,5.0,10.0,88,0.00,,---,0.00,0.00,VWS V14.00,2013-04-15 08:19:00,
2013-04-15 03:23:00,68.2,64.5,29.60,South,169,4.0,10.0,88,0.00,,---,0.00,0.00,VWS V14.00,2013-04-15 08:23:00,
2013-04-15 03:27:00,68.2,64.8,29.60,SSE,164,7.0,10.0,89,0.00,,---,0.00,0.00,VWS V14.00,2013-04-15 08:27:00,
2013-04-15 03:30:00,68.1,64.4,29.61,SSE,149,6.0,10.0,88,0.00,,---,0.00,0.00,VWS V14.00,2013-04-15 08:30:00,
2013-04-15 03:31:00,68.2,64.8,29.61,South,189,6.0,6.0,89,0.00,,---,0.00,0.00,VWS V14.00,2013-04-15 08:31:00,
2013-04-15 03:35:00,68.3,64.6,29.61,South,169,5.0,7.0,88,0.00,,---,0.00,0.00,VWS V14.00,2013-04-15 08:35:00,
2013-04-15 03:40:00,68.0,64.6,29.61,SSE,160,5.0,7.0,89,0.00,,---,0.00,0.00,VWS V14.00,2013-04-15 08:40:00,
2013-04-15 03:44:00,67.9,64.5,29.61,South,172,7.0,7.0,89,0.00,,---,0.00,0.00,VWS V14.00,2013-04-15 08:44:00,
2013-04-15 03:48:00,68.0,64.6,29.61,SSE,166,7.0,7.0,89,0.00,,---,0.00,0.00,VWS V14.00,2013-04-15 08:48:00,
2013-04-15 03:52:00,68.1,64.7,29.61,SSE,167,3.0,7.0,89,0.00,,---,0.00,0.00,VWS V14.00,2013-04-15 08:52:00,
2013-04-15 03:56:00,68.0,64.3,29.61,SSE,161,4.0,7.0,88,0.00,,---,0.00,0.00,VWS V14.00,2013-04-15 08:56:00,
2013-04-15 04:00:00,68.0,64.6,29.61,South,172,6.0,7.0,89,0.00,,---,0.00,0.00,VWS V14.00,2013-04-15 09:00:00,
2013-04-15 04:04:00,68.1,64.7,29.61,SSE,167,7.0,7.0,89,0.00,,---,0.00,0.00,VWS V14.00,2013-04-15 09:04:00,
2013-04-15 04:08:00,68.1,64.7,29.61,South,171,5.0,7.0,89,0.00,,---,0.00,0.00,VWS V14.00,2013-04-15 09:08:00,
2013-04-15 04:12:00,68.1,64.7,29.61,SSE,162,4.0,10.0,89,0.00,,---,0.00,0.00,VWS V14.00,2013-04-15 09:12:00,
2013-04-15 04:16:00,67.9,64.2,29.61,South,175,7.0,10.0,88,0.00,,---,0.00,0.00,VWS V14.00,2013-04-15 09:16:00,
2013-04-15 04:20:00,67.8,64.4,29.61,SSE,163,4.0,10.0,89,0.00,,---,0.00,0.00,VWS V14.00,2013-04-15 09:20:00,
2013-04-15 04:24:00,67.7,64.3,29.61,SE,125,6.0,10.0,89,0.00,,---,0.00,0.00,VWS V14.00,2013-04-15 09:24:00,
2013-04-15 04:28:00,67.8,64.4,29.61,South,170,5.0,10.0,89,0.00,,---,0.00,0.00,VWS V14.00,2013-04-15 09:28:00,
2013-04-15 04:30:00,67.7,64.3,29.62,South,169,3.0,10.0,89,0.00,,---,0.00,0.00,VWS V14.00,2013-04-15 09:30:00,
2013-04-15 04:33:00,67.5,64.2,29.62,South,177,3.0,4.0,89,0.00,,---,0.00,0.00,VWS V14.00,2013-04-15 09:33:00,
2013-04-15 04:37:00,67.5,64.2,29.62,SSE,163,5.0,6.0,89,0.00,,---,0.00,0.00,VWS V14.00,2013-04-15 09:37:00,
2013-04-15 04:45:00,67.7,64.3,29.62,South,172,3.0,7.0,89,0.00,,---,0.00,0.00,VWS V14.00,2013-04-15 09:45:00,
2013-04-15 04:49:00,67.6,64.2,29.62,SSE,167,5.0,7.0,89,0.00,,---,0.00,0.00,VWS V14.00,2013-04-15 09:49:00,
2013-04-15 04:53:00,67.6,64.6,29.62,SSE,161,5.0,7.0,90,0.00,,---,0.00,0.00,VWS V14.00,2013-04-15 09:53:00,
2013-04-15 04:57:00,67.7,64.7,29.62,South,179,5.0,7.0,90,0.00,,---,0.00,0.00,VWS V14.00,2013-04-15 09:57:00,
2013-04-15 05:00:00,67.8,64.8,29.62,South,171,6.0,9.0,90,0.00,,---,0.00,0.00,VWS V14.00,2013-04-15 10:00:00,
2013-04-15 05:01:00,67.9,64.5,29.62,SSE,167,4.0,10.0,89,0.00,,---,0.00,0.00,VWS V14.00,2013-04-15 10:01:00,
2013-04-15 05:05:00,67.9,64.5,29.62,SSE,159,7.0,10.0,89,0.00,,---,0.00,0.00,VWS V14.00,2013-04-15 10:05:00,
2013-04-15 05:09:00,67.9,64.5,29.62,SE,140,10.0,11.0,89,0.00,,---,0.00,0.00,VWS V14.00,2013-04-15 10:09:00,
2013-04-15 05:13:00,68.1,64.7,29.62,SSE,159,7.0,11.0,89,0.00,,---,0.00,0.00,VWS V14.00,2013-04-15 10:13:00,
2013-04-15 05:17:00,68.2,64.8,29.62,SSE,165,7.0,11.0,89,0.00,,---,0.00,0.00,VWS V14.00,2013-04-15 10:17:00,
2013-04-15 05:21:00,68.3,64.9,29.62,SSE,158,9.0,11.0,89,0.00,,---,0.00,0.00,VWS V14.00,2013-04-15 10:21:00,
2013-04-15 05:29:00,68.5,64.8,29.63,South,186,4.0,11.0,88,0.00,,---,0.00,0.00,VWS V14.00,2013-04-15 10:29:00,
2013-04-15 05:34:00,68.4,64.7,29.63,South,169,4.0,6.0,88,0.00,,---,0.00,0.00,VWS V14.00,2013-04-15 10:34:00,
2013-04-15 05:38:00,68.6,64.9,29.63,SSW,196,9.0,9.0,88,0.00,,---,0.00,0.00,VWS V14.00,2013-04-15 10:38:00,
2013-04-15 05:42:00,68.7,65.0,29.63,SSE,167,4.0,9.0,88,0.00,,---,0.00,0.00,VWS V14.00,2013-04-15 10:42:00,
2013-04-15 05:46:00,68.7,65.0,29.64,SSE,163,6.0,12.0,88,0.00,,---,0.00,0.00,VWS V14.00,2013-04-15 10:46:00,
2013-04-15 05:50:00,68.8,64.8,29.64,South,173,11.0,12.0,87,0.00,,---,0.00,0.00,VWS V14.00,2013-04-15 10:50:00,
2013-04-15 05:54:00,68.8,64.8,29.64,South,169,5.0,12.0,87,0.00,,---,0.00,0.00,VWS V14.00,2013-04-15 10:54:00,
2013-04-15 05:58:00,68.8,64.8,29.64,South,169,3.0,12.0,87,0.00,,---,0.00,0.00,VWS V14.00,2013-04-15 10:58:00,
2013-04-15 06:02:00,68.8,64.8,29.64,South,182,3.0,5.0,87,0.00,,---,0.00,0.00,VWS V14.00,2013-04-15 11:02:00,
2013-04-15 06:06:00,68.7,64.7,29.64,SSE,164,7.0,10.0,87,0.00,,---,0.00,0.00,VWS V14.00,2013-04-15 11:06:00,
2013-04-15 06:14:00,68.8,64.8,29.65,South,191,1.0,12.0,87,0.00,,---,0.00,0.00,VWS V14.00,2013-04-15 11:14:00,
2013-04-15 06:19:00,68.8,64.8,29.65,South,176,5.0,12.0,87,0.00,,---,0.00,0.00,VWS V14.00,2013-04-15 11:19:00,
2013-04-15 06:23:00,68.9,64.9,29.65,South,179,5.0,12.0,87,0.00,,---,0.00,0.00,VWS V14.00,2013-04-15 11:23:00,
2013-04-15 06:27:00,68.9,64.9,29.65,South,188,5.0,12.0,87,0.00,,---,0.00,0.00,VWS V14.00,2013-04-15 11:27:00,
2013-04-15 06:30:00,69.0,65.0,29.66,South,177,4.0,12.0,87,0.00,,---,0.00,0.00,VWS V14.00,2013-04-15 11:30:00,
2013-04-15 06:31:00,69.0,65.0,29.66,SSW,192,2.0,6.0,87,0.00,,---,0.00,0.00,VWS V14.00,2013-04-15 11:31:00,
2013-04-15 06:35:00,69.1,65.1,29.66,South,173,7.0,8.0,87,0.00,,---,0.00,0.00,VWS V14.00,2013-04-15 11:35:00,
2013-04-15 06:39:00,69.0,65.0,29.66,SSW,192,9.0,9.0,87,0.00,,---,0.00,0.00,VWS V14.00,2013-04-15 11:39:00,
2013-04-15 06:43:00,69.1,64.7,29.66,South,180,6.0,10.0,86,0.00,,---,0.00,0.00,VWS V14.00,2013-04-15 11:43:00,
2013-04-15 06:47:00,69.0,65.0,29.66,South,182,5.0,10.0,87,0.00,,---,0.00,0.00,VWS V14.00,2013-04-15 11:47:00,
2013-04-15 06:51:00,69.0,64.6,29.66,SSW,212,5.0,10.0,86,0.00,,---,0.00,0.00,VWS V14.00,2013-04-15 11:51:00,
2013-04-15 06:59:00,69.1,64.7,29.67,SE,144,5.0,10.0,86,0.00,,---,0.00,7.00,VWS V14.00,2013-04-15 11:59:00,
2013-04-15 07:00:00,69.1,64.7,29.67,South,169,4.0,10.0,86,0.00,,---,0.00,9.00,VWS V14.00,2013-04-15 12:00:00,
2013-04-15 07:03:00,69.2,64.8,29.67,South,169,6.0,6.0,86,0.00,,---,0.00,11.00,VWS V14.00,2013-04-15 12:03:00,
2013-04-15 07:12:00,69.1,64.7,29.67,South,182,3.0,9.0,86,0.00,,---,0.00,16.00,VWS V14.00,2013-04-15 12:12:00,
2013-04-15 07:16:00,69.2,64.8,29.67,SSE,157,6.0,12.0,86,0.00,,---,0.00,23.00,VWS V14.00,2013-04-15 12:16:00,
2013-04-15 07:20:00,69.4,65.0,29.67,SSE,167,7.0,12.0,86,0.00,,---,0.00,23.00,VWS V14.00,2013-04-15 12:20:00,
2013-04-15 07:24:00,69.3,64.9,29.67,South,178,6.0,12.0,86,0.00,,---,0.00,25.00,VWS V14.00,2013-04-15 12:24:00,
2013-04-15 07:28:00,69.4,65.0,29.67,South,177,7.0,12.0,86,0.00,,---,0.00,23.00,VWS V14.00,2013-04-15 12:28:00,
2013-04-15 07:30:00,69.5,65.1,29.69,South,178,5.0,12.0,86,0.00,,---,0.00,25.00,VWS V14.00,2013-04-15 12:30:00,
2013-04-15 07:32:00,69.5,65.1,29.69,South,186,5.0,6.0,86,0.00,,---,0.00,26.00,VWS V14.00,2013-04-15 12:32:00,
2013-04-15 07:40:00,69.5,64.8,29.69,South,178,7.0,11.0,85,0.00,,---,0.00,32.00,VWS V14.00,2013-04-15 12:40:00,
2013-04-15 07:44:00,69.6,64.9,29.70,SSE,167,5.0,11.0,85,0.00,,---,0.00,33.00,VWS V14.00,2013-04-15 12:44:00,
2013-04-15 07:48:00,69.5,64.8,29.70,SSE,157,3.0,11.0,85,0.00,,---,0.00,39.00,VWS V14.00,2013-04-15 12:48:00,
2013-04-15 07:57:00,69.7,65.0,29.70,South,180,6.0,15.0,85,0.00,,---,0.00,44.00,VWS V14.00,2013-04-15 12:57:00,
2013-04-15 08:00:00,69.8,65.1,29.70,South,177,6.0,15.0,85,0.00,,---,0.00,54.00,VWS V14.00,2013-04-15 13:00:00,
2013-04-15 08:01:00,69.8,64.8,29.70,South,177,5.0,7.0,84,0.00,,---,0.00,58.00,VWS V14.00,2013-04-15 13:01:00,
2013-04-15 08:05:00,69.7,65.0,29.70,South,174,5.0,12.0,85,0.00,,---,0.00,60.00,VWS V14.00,2013-04-15 13:05:00,
2013-04-15 08:09:00,69.7,65.0,29.70,South,181,7.0,12.0,85,0.00,,---,0.00,63.00,VWS V14.00,2013-04-15 13:09:00,
2013-04-15 08:13:00,69.8,65.1,29.70,SSE,151,5.0,12.0,85,0.00,,---,0.00,65.00,VWS V14.00,2013-04-15 13:13:00,
2013-04-15 08:17:00,69.8,65.1,29.70,South,181,9.0,12.0,85,0.00,,---,0.00,76.00,VWS V14.00,2013-04-15 13:17:00,
2013-04-15 08:21:00,69.9,65.2,29.70,South,178,15.0,16.0,85,0.00,,---,0.00,93.00,VWS V14.00,2013-04-15 13:21:00,
2013-04-15 08:25:00,70.0,64.9,29.70,South,186,6.0,16.0,84,0.00,,---,0.00,79.00,VWS V14.00,2013-04-15 13:25:00,
2013-04-15 08:29:00,70.0,64.9,29.71,South,175,6.0,16.0,84,0.00,,---,0.00,88.00,VWS V14.00,2013-04-15 13:29:00,
2013-04-15 08:30:00,70.0,64.9,29.71,South,181,8.0,16.0,84,0.00,,---,0.00,88.00,VWS V14.00,2013-04-15 13:30:00,
2013-04-15 08:33:00,70.1,65.1,29.71,SSW,199,6.0,15.0,84,0.00,,---,0.00,114.00,VWS V14.00,2013-04-15 13:33:00,
2013-04-15 08:37:00,70.2,65.1,29.71,South,180,4.0,15.0,84,0.00,,---,0.00,111.00,VWS V14.00,2013-04-15 13:37:00,
2013-04-15 08:41:00,70.2,64.8,29.71,SE,143,5.0,15.0,83,0.00,,---,0.00,116.00,VWS V14.00,2013-04-15 13:41:00,
2013-04-15 08:45:00,70.2,65.1,29.72,South,173,5.0,15.0,84,0.00,,---,0.00,139.00,VWS V14.00,2013-04-15 13:45:00,
2013-04-15 08:49:00,70.2,65.1,29.72,SSE,160,9.0,15.0,84,0.00,,---,0.00,118.00,VWS V14.00,2013-04-15 13:49:00,
2013-04-15 08:53:00,70.2,65.1,29.72,South,170,8.0,15.0,84,0.00,,---,0.00,118.00,VWS V14.00,2013-04-15 13:53:00,
2013-04-15 08:57:00,70.3,65.2,29.72,SSE,167,11.0,15.0,84,0.00,,---,0.00,128.00,VWS V14.00,2013-04-15 13:57:00,
2013-04-15 09:00:00,70.5,65.1,29.72,South,184,9.0,15.0,83,0.00,,---,0.00,142.00,VWS V14.00,2013-04-15 14:00:00,
2013-04-15 09:01:00,70.6,65.2,29.72,South,178,9.0,9.0,83,0.00,,---,0.00,139.00,VWS V14.00,2013-04-15 14:01:00,
2013-04-15 09:09:00,70.7,65.3,29.72,SSE,150,10.0,11.0,83,0.00,,---,0.00,149.00,VWS V14.00,2013-04-15 14:09:00,
2013-04-15 09:14:00,70.7,65.3,29.72,South,190,4.0,12.0,83,0.00,,---,0.00,155.00,VWS V14.00,2013-04-15 14:14:00,
2013-04-15 09:18:00,70.7,65.3,29.72,SSE,166,8.0,12.0,83,0.00,,---,0.00,144.00,VWS V14.00,2013-04-15 14:18:00,
2013-04-15 09:22:00,70.8,65.4,29.72,South,171,7.0,16.0,83,0.00,,---,0.00,185.00,VWS V14.00,2013-04-15 14:22:00,
2013-04-15 09:26:00,71.0,65.2,29.72,South,187,6.0,16.0,82,0.00,,---,0.00,185.00,VWS V14.00,2013-04-15 14:26:00,
2013-04-15 09:30:00,71.0,65.6,29.72,SSE,162,12.0,16.0,83,0.00,,---,0.00,199.00,VWS V14.00,2013-04-15 14:30:00,
2013-04-15 09:34:00,71.2,65.4,29.72,SW,226,4.0,12.0,82,0.00,,---,0.00,188.00,VWS V14.00,2013-04-15 14:34:00,
2013-04-15 09:38:00,71.2,65.8,29.72,South,178,4.0,12.0,83,0.00,,---,0.00,202.00,VWS V14.00,2013-04-15 14:38:00,
2013-04-15 09:42:00,71.2,65.4,29.72,South,178,10.0,12.0,82,0.00,,---,0.00,192.00,VWS V14.00,2013-04-15 14:42:00,
2013-04-15 09:46:00,71.2,65.8,29.73,SSE,166,10.0,12.0,83,0.00,,---,0.00,206.00,VWS V14.00,2013-04-15 14:46:00,
2013-04-15 09:50:00,71.5,66.1,29.73,South,175,12.0,12.0,83,0.00,,---,0.00,220.00,VWS V14.00,2013-04-15 14:50:00,
2013-04-15 09:54:00,71.6,65.8,29.73,South,178,8.0,15.0,82,0.00,,---,0.00,271.00,VWS V14.00,2013-04-15 14:54:00,
2013-04-15 09:58:00,71.8,66.0,29.73,South,187,12.0,15.0,82,0.00,,---,0.00,301.00,VWS V14.00,2013-04-15 14:58:00,
2013-04-15 10:00:00,71.9,66.1,29.73,SSW,195,10.0,15.0,82,0.00,,---,0.00,343.00,VWS V14.00,2013-04-15 15:00:00,
2013-04-15 10:02:00,72.0,66.2,29.73,South,180,6.0,11.0,82,0.00,,---,0.00,271.00,VWS V14.00,2013-04-15 15:02:00,
2013-04-15 10:06:00,72.1,65.9,29.73,South,178,6.0,11.0,81,0.00,,---,0.00,294.00,VWS V14.00,2013-04-15 15:06:00,
2013-04-15 10:14:00,72.7,66.2,29.73,South,177,9.0,11.0,80,0.00,,---,0.00,334.00,VWS V14.00,2013-04-15 15:14:00,
2013-04-15 10:18:00,72.6,66.4,29.73,SW,216,6.0,11.0,81,0.00,,---,0.00,343.00,VWS V14.00,2013-04-15 15:18:00,
2013-04-15 10:23:00,72.8,66.6,29.73,SSE,159,10.0,11.0,81,0.00,,---,0.00,369.00,VWS V14.00,2013-04-15 15:23:00,
2013-04-15 10:27:00,73.8,67.2,29.73,SSE,159,6.0,12.0,80,0.00,,---,0.00,369.00,VWS V14.00,2013-04-15 15:27:00,
2013-04-15 10:30:00,73.5,66.6,29.73,SSE,162,10.0,13.0,79,0.00,,---,0.00,285.00,VWS V14.00,2013-04-15 15:30:00,
2013-04-15 10:31:00,73.4,66.5,29.73,SSE,162,11.0,11.0,79,0.00,,---,0.00,285.00,VWS V14.00,2013-04-15 15:31:00,
2013-04-15 10:35:00,73.3,66.4,29.73,SSE,163,12.0,13.0,79,0.00,,---,0.00,285.00,VWS V14.00,2013-04-15 15:35:00,
2013-04-15 10:39:00,73.6,66.7,29.73,SW,235,10.0,13.0,79,0.00,,---,0.00,334.00,VWS V14.00,2013-04-15 15:39:00,
2013-04-15 10:43:00,73.7,66.8,29.73,South,180,4.0,14.0,79,0.00,,---,0.00,360.00,VWS V14.00,2013-04-15 15:43:00,
2013-04-15 10:47:00,74.0,66.7,29.73,SSE,151,12.0,14.0,78,0.00,,---,0.00,879.00,VWS V14.00,2013-04-15 15:47:00,
2013-04-15 10:51:00,74.1,66.4,29.73,SSE,160,6.0,15.0,77,0.00,,---,0.00,448.00,VWS V14.00,2013-04-15 15:51:00,
2013-04-15 10:55:00,75.0,67.3,29.73,South,174,11.0,15.0,77,0.00,,---,0.00,868.00,VWS V14.00,2013-04-15 15:55:00,
2013-04-15 10:59:00,75.0,66.9,29.73,SSE,166,12.0,15.0,76,0.00,,---,0.00,780.00,VWS V14.00,2013-04-15 15:59:00,
2013-04-15 11:03:00,74.7,67.0,29.73,South,176,9.0,17.0,77,0.00,,---,0.00,432.00,VWS V14.00,2013-04-15 16:03:00,
2013-04-15 11:07:00,75.3,66.8,29.73,South,173,11.0,17.0,75,0.00,,---,0.00,969.00,VWS V14.00,2013-04-15 16:07:00,
2013-04-15 11:11:00,75.6,67.1,29.73,SSE,152,15.0,17.0,75,0.00,,---,0.00,882.00,VWS V14.00,2013-04-15 16:11:00,
2013-04-15 11:19:00,75.7,66.8,29.73,South,184,8.0,17.0,74,0.00,,---,0.00,865.00,VWS V14.00,2013-04-15 16:19:00,
2013-04-15 11:23:00,75.9,67.0,29.73,SSE,162,7.0,17.0,74,0.00,,---,0.00,888.00,VWS V14.00,2013-04-15 16:23:00,
2013-04-15 11:27:00,76.0,67.1,29.73,South,178,6.0,17.0,74,0.00,,---,0.00,888.00,VWS V14.00,2013-04-15 16:27:00,
2013-04-15 11:30:00,76.2,67.7,29.73,South,170,10.0,17.0,75,0.00,,---,0.00,831.00,VWS V14.00,2013-04-15 16:30:00,
2013-04-15 11:31:00,76.2,67.3,29.73,SSE,165,15.0,15.0,74,0.00,,---,0.00,837.00,VWS V14.00,2013-04-15 16:31:00,
2013-04-15 11:35:00,76.3,67.4,29.73,SSE,162,9.0,15.0,74,0.00,,---,0.00,849.00,VWS V14.00,2013-04-15 16:35:00,
2013-04-15 11:39:00,76.6,67.3,29.73,South,180,9.0,15.0,73,0.00,,---,0.00,849.00,VWS V14.00,2013-04-15 16:39:00,
2013-04-15 11:44:00,76.6,66.9,29.73,SSE,162,12.0,15.0,72,0.00,,---,0.00,856.00,VWS V14.00,2013-04-15 16:44:00,
2013-04-15 11:48:00,76.8,67.5,29.73,SSE,159,11.0,15.0,73,0.00,,---,0.00,840.00,VWS V14.00,2013-04-15 16:48:00,
2013-04-15 11:52:00,76.9,67.2,29.73,SSE,159,11.0,15.0,72,0.00,,---,0.00,821.00,VWS V14.00,2013-04-15 16:52:00,
2013-04-15 11:56:00,76.9,67.2,29.73,South,175,11.0,15.0,72,0.00,,---,0.00,856.00,VWS V14.00,2013-04-15 16:56:00,
2013-04-15 12:00:00,77.3,67.2,29.73,SSE,161,11.0,15.0,71,0.00,,---,0.00,860.00,VWS V14.00,2013-04-15 17:00:00,
2013-04-15 12:08:00,77.7,67.1,29.73,SSE,167,8.0,18.0,70,0.00,,---,0.00,886.00,VWS V14.00,2013-04-15 17:08:00,
2013-04-15 12:12:00,77.9,66.5,29.73,South,175,10.0,18.0,68,0.00,,---,0.00,856.00,VWS V14.00,2013-04-15 17:12:00,
2013-04-15 12:16:00,77.7,66.7,29.73,South,190,5.0,18.0,69,0.00,,---,0.00,795.00,VWS V14.00,2013-04-15 17:16:00,
2013-04-15 12:20:00,77.7,67.1,29.73,SSW,207,5.0,18.0,70,0.00,,---,0.00,886.00,VWS V14.00,2013-04-15 17:20:00,
2013-04-15 12:24:00,78.5,67.9,29.73,SSE,165,4.0,18.0,70,0.00,,---,0.00,902.00,VWS V14.00,2013-04-15 17:24:00,
2013-04-15 12:28:00,78.8,66.9,29.73,SSE,158,12.0,18.0,67,0.00,,---,0.00,891.00,VWS V14.00,2013-04-15 17:28:00,
2013-04-15 12:30:00,78.8,66.5,29.73,SSE,157,11.0,18.0,66,0.00,,---,0.00,900.00,VWS V14.00,2013-04-15 17:30:00,
2013-04-15 12:32:00,78.8,66.9,29.73,SSE,157,9.0,13.0,67,0.00,,---,0.00,916.00,VWS V14.00,2013-04-15 17:32:00,
2013-04-15 12:36:00,79.1,67.2,29.73,South,180,5.0,13.0,67,0.00,,---,0.00,779.00,VWS V14.00,2013-04-15 17:36:00,
2013-04-15 12:40:00,79.3,67.0,29.73,South,169,7.0,15.0,66,0.00,,---,0.00,898.00,VWS V14.00,2013-04-15 17:40:00,
2013-04-15 12:44:00,79.4,66.6,29.72,SSE,155,13.0,15.0,65,0.00,,---,0.00,861.00,VWS V14.00,2013-04-15 17:44:00,
2013-04-15 12:48:00,79.7,67.3,29.72,SSW,212,9.0,15.0,66,0.00,,---,0.00,875.00,VWS V14.00,2013-04-15 17:48:00,
2013-04-15 12:52:00,79.9,67.5,29.72,South,174,5.0,15.0,66,0.00,,---,0.00,900.00,VWS V14.00,2013-04-15 17:52:00,
2013-04-15 12:56:00,80.2,67.4,29.72,SSE,153,8.0,15.0,65,0.00,,---,0.00,911.00,VWS V14.00,2013-04-15 17:56:00,
2013-04-15 13:00:00,80.5,66.8,29.72,SSE,148,15.0,15.0,63,0.00,,---,0.00,902.00,VWS V14.00,2013-04-15 18:00:00,
2013-04-15 13:04:00,80.6,67.3,29.72,SSE,164,8.0,12.0,64,0.00,,---,0.00,944.00,VWS V14.00,2013-04-15 18:04:00,
2013-04-15 13:09:00,81.1,67.3,29.72,South,170,12.0,14.0,63,0.00,,---,0.00,912.00,VWS V14.00,2013-04-15 18:09:00,
2013-04-15 13:13:00,81.1,66.9,29.72,South,171,6.0,14.0,62,0.00,,---,0.00,916.00,VWS V14.00,2013-04-15 18:13:00,
2013-04-15 13:17:00,81.0,66.8,29.72,South,188,2.0,14.0,62,0.00,,---,0.00,865.00,VWS V14.00,2013-04-15 18:17:00,
2013-04-15 13:21:00,81.3,66.6,29.72,SSE,165,7.0,14.0,61,0.00,,---,0.00,823.00,VWS V14.00,2013-04-15 18:21:00,
2013-04-15 13:25:00,81.4,67.6,29.72,South,171,4.0,14.0,63,0.00,,---,0.00,930.00,VWS V14.00,2013-04-15 18:25:00,
2013-04-15 13:29:00,81.8,67.5,29.72,SSE,167,4.0,14.0,62,0.00,,---,0.00,930.00,VWS V14.00,2013-04-15 18:29:00,
2013-04-15 13:30:00,81.9,67.6,29.71,SSW,204,6.0,14.0,62,0.00,,---,0.00,928.00,VWS V14.00,2013-04-15 18:30:00,
2013-04-15 13:33:00,81.9,67.1,29.71,SSE,163,5.0,13.0,61,0.00,,---,0.00,918.00,VWS V14.00,2013-04-15 18:33:00,
2013-04-15 13:37:00,82.0,66.8,29.71,SSE,157,11.0,13.0,60,0.00,,---,0.00,919.00,VWS V14.00,2013-04-15 18:37:00,
2013-04-15 13:41:00,81.9,67.1,29.71,SSE,158,13.0,13.0,61,0.00,,---,0.00,926.00,VWS V14.00,2013-04-15 18:41:00,
2013-04-15 13:45:00,82.2,68.4,29.71,SE,146,6.0,13.0,63,0.00,,---,0.00,925.00,VWS V14.00,2013-04-15 18:45:00,
2013-04-15 13:49:00,82.2,66.9,29.71,SSE,167,9.0,13.0,60,0.00,,---,0.00,904.00,VWS V14.00,2013-04-15 18:49:00,
2013-04-15 13:53:00,82.0,67.2,29.71,SSE,168,10.0,15.0,61,0.00,,---,0.00,898.00,VWS V14.00,2013-04-15 18:53:00,
2013-04-15 13:57:00,81.8,67.5,29.71,SSE,163,11.0,15.0,62,0.00,,---,0.00,893.00,VWS V14.00,2013-04-15 18:57:00,
2013-04-15 14:00:00,81.9,66.7,29.71,SW,219,6.0,15.0,60,0.00,,---,0.00,879.00,VWS V14.00,2013-04-15 19:00:00,
2013-04-15 14:01:00,82.2,67.9,29.71,SSW,213,7.0,7.0,62,0.00,,---,0.00,886.00,VWS V14.00,2013-04-15 19:01:00,
2013-04-15 14:05:00,82.2,67.4,29.71,SSE,148,8.0,14.0,61,0.00,,---,0.00,877.00,VWS V14.00,2013-04-15 19:05:00,
2013-04-15 14:09:00,82.7,66.4,29.71,South,185,4.0,14.0,58,0.00,,---,0.00,881.00,VWS V14.00,2013-04-15 19:09:00,
2013-04-15 14:13:00,83.4,67.6,29.71,SSW,196,7.0,14.0,59,0.00,,---,0.00,874.00,VWS V14.00,2013-04-15 19:13:00,
2013-04-15 14:17:00,83.4,67.1,29.70,SSE,157,10.0,15.0,58,0.00,,---,0.00,874.00,VWS V14.00,2013-04-15 19:17:00,
2013-04-15 14:21:00,83.2,66.9,29.70,SSE,159,11.0,15.0,58,0.00,,---,0.00,872.00,VWS V14.00,2013-04-15 19:21:00,
2013-04-15 14:25:00,83.3,68.0,29.70,SSE,166,6.0,15.0,60,0.00,,---,0.00,872.00,VWS V14.00,2013-04-15 19:25:00,
2013-04-15 14:29:00,83.4,67.6,29.70,South,172,4.0,15.0,59,0.00,,---,0.00,877.00,VWS V14.00,2013-04-15 19:29:00,
2013-04-15 14:30:00,83.5,67.7,29.70,SSE,164,3.0,15.0,59,0.00,,---,0.00,875.00,VWS V14.00,2013-04-15 19:30:00,
2013-04-15 14:34:00,83.6,66.3,29.70,South,186,6.0,10.0,56,0.00,,---,0.00,844.00,VWS V14.00,2013-04-15 19:34:00,
2013-04-15 14:38:00,83.8,67.5,29.70,SSE,151,6.0,10.0,58,0.00,,---,0.00,856.00,VWS V14.00,2013-04-15 19:38:00,
2013-04-15 14:42:00,83.3,67.0,29.70,SSE,160,12.0,14.0,58,0.00,,---,0.00,844.00,VWS V14.00,2013-04-15 19:42:00,
2013-04-15 14:50:00,83.3,67.0,29.70,South,182,11.0,15.0,58,0.00,,---,0.00,816.00,VWS V14.00,2013-04-15 19:50:00,
2013-04-15 14:54:00,83.5,67.7,29.70,South,186,9.0,15.0,59,0.00,,---,0.00,814.00,VWS V14.00,2013-04-15 19:54:00,
2013-04-15 14:58:00,84.0,68.6,29.70,SSW,202,6.0,15.0,60,0.00,,---,0.00,800.00,VWS V14.00,2013-04-15 19:58:00,
2013-04-15 15:02:00,84.2,67.8,29.69,South,180,12.0,12.0,58,0.00,,---,0.00,803.00,VWS V14.00,2013-04-15 20:02:00,
2013-04-15 15:06:00,83.7,67.4,29.69,SSE,150,11.0,12.0,58,0.00,,---,0.00,791.00,VWS V14.00,2013-04-15 20:06:00,
2013-04-15 15:10:00,83.4,66.1,29.69,South,178,7.0,16.0,56,0.00,,---,0.00,789.00,VWS V14.00,2013-04-15 20:10:00,
2013-04-15 15:14:00,83.4,65.6,29.69,South,170,10.0,16.0,55,0.00,,---,0.00,777.00,VWS V14.00,2013-04-15 20:14:00,
2013-04-15 15:18:00,83.1,66.3,29.69,South,170,12.0,16.0,57,0.00,,---,0.00,775.00,VWS V14.00,2013-04-15 20:18:00,
2013-04-15 15:22:00,83.4,66.6,29.69,South,175,7.0,16.0,57,0.00,,---,0.00,770.00,VWS V14.00,2013-04-15 20:22:00,
2013-04-15 15:26:00,83.8,66.4,29.69,SSE,156,11.0,16.0,56,0.00,,---,0.00,761.00,VWS V14.00,2013-04-15 20:26:00,
2013-04-15 15:30:00,83.6,66.3,29.69,South,169,7.0,16.0,56,0.00,,---,0.00,735.00,VWS V14.00,2013-04-15 20:30:00,
2013-04-15 15:34:00,83.7,66.3,29.69,South,173,6.0,16.0,56,0.00,,---,0.00,705.00,VWS V14.00,2013-04-15 20:34:00,
2013-04-15 15:38:00,83.9,66.5,29.69,South,184,9.0,16.0,56,0.00,,---,0.00,722.00,VWS V14.00,2013-04-15 20:38:00,
2013-04-15 15:42:00,84.0,66.6,29.69,SSE,165,10.0,16.0,56,0.00,,---,0.00,710.00,VWS V14.00,2013-04-15 20:42:00,
2013-04-15 15:46:00,84.1,66.7,29.68,SSE,156,6.0,16.0,56,0.00,,---,0.00,687.00,VWS V14.00,2013-04-15 20:46:00,
2013-04-15 15:54:00,84.3,66.4,29.68,SSE,165,14.0,16.0,55,0.00,,---,0.00,679.00,VWS V14.00,2013-04-15 20:54:00,
2013-04-15 15:59:00,84.3,65.9,29.68,SSE,159,12.0,16.0,54,0.00,,---,0.00,675.00,VWS V14.00,2013-04-15 20:59:00,
2013-04-15 16:00:00,84.3,66.4,29.68,South,178,10.0,16.0,55,0.00,,---,0.00,682.00,VWS V14.00,2013-04-15 21:00:00,
2013-04-15 16:03:00,84.3,65.9,29.68,South,177,5.0,12.0,54,0.00,,---,0.00,541.00,VWS V14.00,2013-04-15 21:03:00,
2013-04-15 16:07:00,84.0,66.1,29.68,SSE,159,11.0,13.0,55,0.00,,---,0.00,671.00,VWS V14.00,2013-04-15 21:07:00,
2013-04-15 16:11:00,84.1,66.2,29.68,SSE,158,6.0,13.0,55,0.00,,---,0.00,661.00,VWS V14.00,2013-04-15 21:11:00,
2013-04-15 16:15:00,84.3,66.4,29.68,South,173,4.0,13.0,55,0.00,,---,0.00,636.00,VWS V14.00,2013-04-15 21:15:00,
2013-04-15 16:19:00,84.4,65.9,29.68,SSE,154,12.0,13.0,54,0.00,,---,0.00,617.00,VWS V14.00,2013-04-15 21:19:00,
2013-04-15 16:23:00,84.2,65.8,29.68,South,176,6.0,15.0,54,0.00,,---,0.00,591.00,VWS V14.00,2013-04-15 21:23:00,
2013-04-15 16:27:00,84.3,65.3,29.68,SSE,163,9.0,15.0,53,0.00,,---,0.00,603.00,VWS V14.00,2013-04-15 21:27:00,
2013-04-15 16:30:00,84.3,65.9,29.68,SSE,155,10.0,15.0,54,0.00,,---,0.00,601.00,VWS V14.00,2013-04-15 21:30:00,
2013-04-15 16:31:00,84.3,65.9,29.68,SE,146,13.0,13.0,54,0.00,,---,0.00,585.00,VWS V14.00,2013-04-15 21:31:00,
2013-04-15 16:35:00,84.3,65.3,29.68,SE,134,12.0,15.0,53,0.00,,---,0.00,526.00,VWS V14.00,2013-04-15 21:35:00,
2013-04-15 16:39:00,84.1,65.7,29.68,SSE,155,11.0,15.0,54,0.00,,---,0.00,557.00,VWS V14.00,2013-04-15 21:39:00,
2013-04-15 16:43:00,83.7,66.3,29.68,SSE,163,9.0,15.0,56,0.00,,---,0.00,531.00,VWS V14.00,2013-04-15 21:43:00,
2013-04-15 16:47:00,83.7,66.3,29.67,SSE,160,9.0,15.0,56,0.00,,---,0.00,367.00,VWS V14.00,2013-04-15 21:47:00,
2013-04-15 16:51:00,82.8,67.0,29.67,SSE,157,4.0,15.0,59,0.00,,---,0.00,285.00,VWS V14.00,2013-04-15 21:51:00,
2013-04-15 16:55:00,83.2,66.4,29.67,SSE,153,12.0,15.0,57,0.00,,---,0.00,422.00,VWS V14.00,2013-04-15 21:55:00,
2013-04-15 16:59:00,83.3,66.0,29.67,South,169,9.0,15.0,56,0.00,,---,0.00,362.00,VWS V14.00,2013-04-15 21:59:00,
2013-04-15 17:00:00,83.2,66.4,29.67,SSE,163,10.0,15.0,57,0.00,,---,0.00,362.00,VWS V14.00,2013-04-15 22:00:00,
2013-04-15 17:03:00,83.0,66.2,29.67,South,176,8.0,12.0,57,0.00,,---,0.00,200.00,VWS V14.00,2013-04-15 22:03:00,
2013-04-15 17:07:00,83.2,66.9,29.67,SSE,167,6.0,12.0,58,0.00,,---,0.00,406.00,VWS V14.00,2013-04-15 22:07:00,
2013-04-15 17:11:00,83.0,66.7,29.67,SSE,163,5.0,12.0,58,0.00,,---,0.00,313.00,VWS V14.00,2013-04-15 22:11:00,
2013-04-15 17:15:00,83.0,67.2,29.67,SSE,152,9.0,12.0,59,0.00,,---,0.00,190.00,VWS V14.00,2013-04-15 22:15:00,
2013-04-15 17:20:00,83.2,66.9,29.67,SSE,159,6.0,12.0,58,0.00,,---,0.00,279.00,VWS V14.00,2013-04-15 22:20:00,
2013-04-15 17:24:00,83.6,67.3,29.67,SSE,155,6.0,12.0,58,0.00,,---,0.00,422.00,VWS V14.00,2013-04-15 22:24:00,
2013-04-15 17:28:00,83.4,67.1,29.67,SSE,148,10.0,12.0,58,0.00,,---,0.00,313.00,VWS V14.00,2013-04-15 22:28:00,
2013-04-15 17:30:00,83.6,67.3,29.66,SSE,157,9.0,12.0,58,0.00,,---,0.00,248.00,VWS V14.00,2013-04-15 22:30:00,
2013-04-15 17:32:00,83.5,67.2,29.66,SE,142,7.0,11.0,58,0.00,,---,0.00,179.00,VWS V14.00,2013-04-15 22:32:00,
2013-04-15 17:36:00,83.8,65.9,29.66,SSE,168,11.0,11.0,55,0.00,,---,0.00,179.00,VWS V14.00,2013-04-15 22:36:00,
2013-04-15 17:40:00,83.8,67.0,29.66,SSE,160,7.0,12.0,57,0.00,,---,0.00,420.00,VWS V14.00,2013-04-15 22:40:00,
2013-04-15 17:44:00,83.4,66.6,29.66,SE,136,7.0,12.0,57,0.00,,---,0.00,302.00,VWS V14.00,2013-04-15 22:44:00,
2013-04-15 17:48:00,83.2,66.4,29.66,SSE,156,6.0,12.0,57,0.00,,---,0.00,315.00,VWS V14.00,2013-04-15 22:48:00,
2013-04-15 17:52:00,83.2,66.9,29.66,South,190,5.0,12.0,58,0.00,,---,0.00,158.00,VWS V14.00,2013-04-15 22:52:00,
2013-04-15 17:56:00,82.8,66.5,29.66,SSE,162,5.0,12.0,58,0.00,,---,0.00,146.00,VWS V14.00,2013-04-15 22:56:00,
2013-04-15 18:00:00,82.5,66.7,29.67,SSE,161,7.0,12.0,59,0.00,,---,0.00,214.00,VWS V14.00,2013-04-15 23:00:00,
2013-04-15 18:04:00,82.6,67.3,29.67,SSE,150,7.0,7.0,60,0.00,,---,0.00,287.00,VWS V14.00,2013-04-15 23:04:00,
2013-04-15 18:08:00,83.0,67.2,29.67,SSE,159,7.0,7.0,59,0.00,,---,0.00,206.00,VWS V14.00,2013-04-15 23:08:00,
2013-04-15 18:12:00,82.6,66.8,29.67,SSE,162,7.0,10.0,59,0.00,,---,0.00,125.00,VWS V14.00,2013-04-15 23:12:00,
2013-04-15 18:16:00,82.3,66.6,29.67,SSE,165,4.0,10.0,59,0.00,,---,0.00,148.00,VWS V14.00,2013-04-15 23:16:00,
2013-04-15 18:24:00,82.0,67.2,29.67,SSE,155,5.0,10.0,61,0.00,,---,0.00,109.00,VWS V14.00,2013-04-15 23:24:00,
2013-04-15 18:28:00,81.9,67.1,29.67,South,173,5.0,10.0,61,0.00,,---,0.00,100.00,VWS V14.00,2013-04-15 23:28:00,
2013-04-15 18:30:00,81.4,67.1,29.67,SSE,164,4.0,10.0,62,0.00,,---,0.00,102.00,VWS V14.00,2013-04-15 23:30:00,
2013-04-15 18:32:00,81.4,66.7,29.67,SE,144,9.0,9.0,61,0.00,,---,0.00,128.00,VWS V14.00,2013-04-15 23:32:00,
2013-04-15 18:36:00,81.6,66.4,29.67,SSE,151,6.0,9.0,60,0.00,,---,0.00,144.00,VWS V14.00,2013-04-15 23:36:00,
2013-04-15 18:40:00,82.0,66.3,29.67,SSE,150,5.0,11.0,59,0.00,,---,0.00,102.00,VWS V14.00,2013-04-15 23:40:00,
2013-04-15 18:44:00,82.0,65.8,29.67,SSE,163,7.0,11.0,58,0.00,,---,0.00,86.00,VWS V14.00,2013-04-15 23:44:00,
2013-04-15 18:49:00,81.7,65.5,29.67,SSE,150,7.0,11.0,58,0.00,,---,0.00,60.00,VWS V14.00,2013-04-15 23:49:00,
2013-04-15 18:53:00,81.2,65.5,29.67,SSE,167,3.0,11.0,59,0.00,,---,0.00,51.00,VWS V14.00,2013-04-15 23:53:00,
2013-04-15 18:57:00,81.1,65.4,29.67,South,171,6.0,11.0,59,0.00,,---,0.00,51.00,VWS V14.00,2013-04-15 23:57:00,
2013-04-15 19:00:00,81.0,65.3,29.67,SSE,161,5.0,11.0,59,0.00,,---,0.00,49.00,VWS V14.00,2013-04-16 00:00:00,
2013-04-15 19:01:00,81.0,65.3,29.67,SSE,160,9.0,9.0,59,0.00,,---,0.00,49.00,VWS V14.00,2013-04-16 00:01:00,
2013-04-15 19:05:00,81.1,65.4,29.67,SSE,163,8.0,11.0,59,0.00,,---,0.00,42.00,VWS V14.00,2013-04-16 00:05:00,
2013-04-15 19:09:00,81.0,65.8,29.67,SE,139,7.0,11.0,60,0.00,,---,0.00,40.00,VWS V14.00,2013-04-16 00:09:00,
2013-04-15 19:13:00,81.0,65.8,29.67,SSE,161,5.0,11.0,60,0.00,,---,0.00,28.00,VWS V14.00,2013-04-16 00:13:00,
2013-04-15 19:17:00,80.9,65.7,29.67,SSE,156,6.0,11.0,60,0.00,,---,0.00,26.00,VWS V14.00,2013-04-16 00:17:00,
2013-04-15 19:21:00,80.6,65.9,29.67,SSE,159,4.0,11.0,61,0.00,,---,0.00,19.00,VWS V14.00,2013-04-16 00:21:00,
2013-04-15 19:25:00,80.2,66.0,29.67,SSE,162,3.0,11.0,62,0.00,,---,0.00,14.00,VWS V14.00,2013-04-16 00:25:00,
2013-04-15 19:29:00,79.8,66.1,29.67,SSE,161,3.0,11.0,63,0.00,,---,0.00,9.00,VWS V14.00,2013-04-16 00:29:00,
2013-04-15 19:30:00,79.6,65.9,29.68,SSE,162,4.0,11.0,63,0.00,,---,0.00,9.00,VWS V14.00,2013-04-16 00:30:00,
2013-04-15 19:33:00,79.3,65.6,29.68,SSE,158,3.0,4.0,63,0.00,,---,0.00,9.00,VWS V14.00,2013-04-16 00:33:00,
2013-04-15 19:37:00,79.0,65.8,29.68,SSW,211,3.0,4.0,64,0.00,,---,0.00,7.00,VWS V14.00,2013-04-16 00:37:00,
2013-04-15 19:41:00,78.8,66.1,29.68,South,175,3.0,4.0,65,0.00,,---,0.00,5.00,VWS V14.00,2013-04-16 00:41:00,
2013-04-15 19:45:00,78.6,65.9,29.68,SE,142,2.0,4.0,65,0.00,,---,0.00,0.00,VWS V14.00,2013-04-16 00:45:00,
2013-04-15 19:49:00,78.5,65.8,29.68,SSE,148,3.0,4.0,65,0.00,,---,0.00,0.00,VWS V14.00,2013-04-16 00:49:00,
2013-04-15 19:53:00,78.4,66.1,29.68,SSE,157,1.0,4.0,66,0.00,,---,0.00,0.00,VWS V14.00,2013-04-16 00:53:00,
2013-04-15 19:57:00,78.3,66.0,29.68,SSE,159,3.0,4.0,66,0.00,,---,0.00,0.00,VWS V14.00,2013-04-16 00:57:00,
2013-04-15 20:00:00,78.1,65.8,29.68,SSE,159,3.0,4.0,66,0.00,,---,0.00,0.00,VWS V14.00,2013-04-16 01:00:00,
2013-04-15 20:01:00,78.0,66.2,29.68,SSE,159,2.0,3.0,67,0.00,,---,0.00,0.00,VWS V14.00,2013-04-16 01:01:00,
2013-04-15 20:05:00,78.0,66.2,29.68,SSE,159,3.0,3.0,67,0.00,,---,0.00,0.00,VWS V14.00,2013-04-16 01:05:00,
2013-04-15 20:10:00,77.7,66.3,29.68,SSE,159,2.0,3.0,68,0.00,,---,0.00,0.00,VWS V14.00,2013-04-16 01:10:00,
2013-04-15 20:14:00,77.5,66.1,29.68,SSE,159,2.0,3.0,68,0.00,,---,0.00,0.00,VWS V14.00,2013-04-16 01:14:00,
2013-04-15 20:18:00,77.5,66.1,29.68,SSE,156,1.0,4.0,68,0.00,,---,0.00,0.00,VWS V14.00,2013-04-16 01:18:00,
2013-04-15 20:22:00,77.3,66.3,29.68,SSE,156,2.0,4.0,69,0.00,,---,0.00,0.00,VWS V14.00,2013-04-16 01:22:00,
2013-04-15 20:26:00,77.3,66.3,29.68,SSE,156,2.0,4.0,69,0.00,,---,0.00,0.00,VWS V14.00,2013-04-16 01:26:00,
2013-04-15 20:30:00,77.5,66.5,29.70,SSE,156,0.0,4.0,69,0.00,,---,0.00,0.00,VWS V14.00,2013-04-16 01:30:00,
2013-04-15 20:34:00,76.3,66.6,29.70,SSE,156,0.0,0.0,72,0.00,,---,0.00,0.00,VWS V14.00,2013-04-16 01:34:00,
2013-04-15 20:38:00,75.3,66.4,29.70,SSE,156,0.0,0.0,74,0.00,,---,0.00,0.00,VWS V14.00,2013-04-16 01:38:00,
2013-04-15 20:42:00,74.8,66.3,29.70,SSE,156,0.0,0.0,75,0.00,,---,0.00,0.00,VWS V14.00,2013-04-16 01:42:00,
2013-04-15 20:46:00,74.5,66.4,29.70,SSE,156,0.0,0.0,76,0.00,,---,0.00,0.00,VWS V14.00,2013-04-16 01:46:00,
2013-04-15 20:50:00,74.4,66.3,29.70,SSE,156,0.0,0.0,76,0.00,,---,0.00,0.00,VWS V14.00,2013-04-16 01:50:00,
2013-04-15 20:54:00,73.3,66.0,29.70,SSE,156,0.0,0.0,78,0.00,,---,0.00,0.00,VWS V14.00,2013-04-16 01:54:00,
2013-04-15 20:58:00,72.5,65.6,29.70,SSE,156,0.0,0.0,79,0.00,,---,0.00,0.00,VWS V14.00,2013-04-16 01:58:00,
2013-04-15 21:00:00,72.4,65.5,29.71,SSE,156,0.0,0.0,79,0.00,,---,0.00,0.00,VWS V14.00,2013-04-16 02:00:00,
2013-04-15 21:02:00,72.0,65.1,29.71,SSE,156,0.0,1.0,79,0.00,,---,0.00,0.00,VWS V14.00,2013-04-16 02:02:00,
2013-04-15 21:06:00,72.7,66.2,29.71,SSE,156,2.0,2.0,80,0.00,,---,0.00,0.00,VWS V14.00,2013-04-16 02:06:00,
2013-04-15 21:10:00,74.2,66.5,29.71,SSE,163,3.0,5.0,77,0.00,,---,0.00,0.00,VWS V14.00,2013-04-16 02:10:00,
2013-04-15 21:14:00,75.6,66.7,29.72,SSE,161,4.0,6.0,74,0.00,,---,0.00,0.00,VWS V14.00,2013-04-16 02:14:00,
2013-04-15 21:18:00,76.2,66.9,29.72,SSE,155,6.0,6.0,73,0.00,,---,0.00,0.00,VWS V14.00,2013-04-16 02:18:00,
2013-04-15 21:22:00,76.6,66.5,29.72,SSE,165,5.0,6.0,71,0.00,,---,0.00,0.00,VWS V14.00,2013-04-16 02:22:00,
2013-04-15 21:26:00,76.5,66.4,29.72,South,173,3.0,6.0,71,0.00,,---,0.00,0.00,VWS V14.00,2013-04-16 02:26:00,
2013-04-15 21:30:00,76.5,66.4,29.72,SSE,166,3.0,7.0,71,0.00,,---,0.00,0.00,VWS V14.00,2013-04-16 02:30:00,
2013-04-15 21:34:00,76.6,66.5,29.72,SSE,165,4.0,7.0,71,0.00,,---,0.00,0.00,VWS V14.00,2013-04-16 02:34:00,
2013-04-15 21:39:00,76.6,66.5,29.72,SSE,159,5.0,7.0,71,0.00,,---,0.00,0.00,VWS V14.00,2013-04-16 02:39:00,
2013-04-15 21:43:00,76.6,66.1,29.72,SSE,153,5.0,8.0,70,0.00,,---,0.00,0.00,VWS V14.00,2013-04-16 02:43:00,
2013-04-15 21:47:00,76.6,66.1,29.72,SSE,161,4.0,8.0,70,0.00,,---,0.00,0.00,VWS V14.00,2013-04-16 02:47:00,
2013-04-15 21:51:00,76.5,66.0,29.72,SSE,157,4.0,8.0,70,0.00,,---,0.00,0.00,VWS V14.00,2013-04-16 02:51:00,
2013-04-15 21:55:00,76.6,66.1,29.72,SSE,161,4.0,8.0,70,0.00,,---,0.00,0.00,VWS V14.00,2013-04-16 02:55:00,
2013-04-15 21:59:00,76.2,65.7,29.72,SSE,167,5.0,8.0,70,0.00,,---,0.00,0.00,VWS V14.00,2013-04-16 02:59:00,
2013-04-15 22:00:00,76.0,65.9,29.72,South,169,5.0,8.0,71,0.00,,---,0.00,0.00,VWS V14.00,2013-04-16 03:00:00,
2013-04-15 22:03:00,75.7,65.6,29.72,SSE,166,6.0,7.0,71,0.00,,---,0.00,0.00,VWS V14.00,2013-04-16 03:03:00,
2013-04-15 22:07:00,75.7,65.6,29.72,SSE,157,5.0,9.0,71,0.00,,---,0.00,0.00,VWS V14.00,2013-04-16 03:07:00,
2013-04-15 22:11:00,75.9,65.8,29.72,SSE,163,3.0,10.0,71,0.00,,---,0.00,0.00,VWS V14.00,2013-04-16 03:11:00,
2013-04-15 22:15:00,76.0,65.9,29.72,SSE,165,9.0,11.0,71,0.00,,---,0.00,0.00,VWS V14.00,2013-04-16 03:15:00,
2013-04-15 22:19:00,76.2,65.7,29.72,SSE,152,13.0,13.0,70,0.00,,---,0.00,0.00,VWS V14.00,2013-04-16 03:19:00,
2013-04-15 22:23:00,76.3,65.8,29.72,SSE,157,9.0,13.0,70,0.00,,---,0.00,0.00,VWS V14.00,2013-04-16 03:23:00,
2013-04-15 22:27:00,76.3,65.8,29.72,South,171,11.0,13.0,70,0.00,,---,0.00,0.00,VWS V14.00,2013-04-16 03:27:00,
2013-04-15 22:30:00,76.4,65.9,29.72,SSE,153,8.0,13.0,70,0.00,,---,0.00,0.00,VWS V14.00,2013-04-16 03:30:00,
2013-04-15 22:31:00,76.4,65.9,29.72,SSE,165,10.0,12.0,70,0.00,,---,0.00,0.00,VWS V14.00,2013-04-16 03:31:00,
2013-04-15 22:39:00,76.3,65.8,29.72,South,169,10.0,13.0,70,0.00,,---,0.00,0.00,VWS V14.00,2013-04-16 03:39:00,
2013-04-15 22:43:00,76.2,65.7,29.72,SSE,167,6.0,13.0,70,0.00,,---,0.00,0.00,VWS V14.00,2013-04-16 03:43:00,
2013-04-15 22:47:00,75.9,65.8,29.72,SSE,163,6.0,13.0,71,0.00,,---,0.00,0.00,VWS V14.00,2013-04-16 03:47:00,
2013-04-15 22:51:00,75.8,65.7,29.72,SSE,159,7.0,13.0,71,0.00,,---,0.00,0.00,VWS V14.00,2013-04-16 03:51:00,
2013-04-15 22:55:00,75.6,65.9,29.72,SSE,156,8.0,13.0,72,0.00,,---,0.00,0.00,VWS V14.00,2013-04-16 03:55:00,
2013-04-15 22:59:00,75.4,66.2,29.73,SSE,163,5.0,13.0,73,0.00,,---,0.00,0.00,VWS V14.00,2013-04-16 03:59:00,
2013-04-15 23:00:00,75.3,66.1,29.73,South,184,7.0,13.0,73,0.00,,---,0.00,0.00,VWS V14.00,2013-04-16 04:00:00,
2013-04-15 23:03:00,75.6,66.3,29.73,SSE,155,10.0,10.0,73,0.00,,---,0.00,0.00,VWS V14.00,2013-04-16 04:03:00,
2013-04-15 23:08:00,75.3,66.4,29.73,SSE,160,12.0,12.0,74,0.00,,---,0.00,0.00,VWS V14.00,2013-04-16 04:08:00,
2013-04-15 23:12:00,75.2,66.0,29.73,South,181,3.0,12.0,73,0.00,,---,0.00,0.00,VWS V14.00,2013-04-16 04:12:00,
2013-04-15 23:16:00,75.0,66.6,29.73,South,175,7.0,12.0,75,0.00,,---,0.00,0.00,VWS V14.00,2013-04-16 04:16:00,
2013-04-15 23:20:00,75.2,66.7,29.73,SSE,168,9.0,12.0,75,0.00,,---,0.00,0.00,VWS V14.00,2013-04-16 04:20:00,
2013-04-15 23:24:00,75.1,66.6,29.73,SSE,161,6.0,12.0,75,0.00,,---,0.00,0.00,VWS V14.00,2013-04-16 04:24:00,
2013-04-15 23:28:00,75.1,66.6,29.73,SE,146,9.0,12.0,75,0.00,,---,0.00,0.00,VWS V14.00,2013-04-16 04:28:00,
2013-04-15 23:30:00,75.2,66.7,29.73,South,169,10.0,12.0,75,0.00,,---,0.00,0.00,VWS V14.00,2013-04-16 04:30:00,
2013-04-15 23:32:00,75.2,66.7,29.73,SSE,163,7.0,9.0,75,0.00,,---,0.00,0.00,VWS V14.00,2013-04-16 04:32:00,
2013-04-15 23:36:00,75.1,66.6,29.73,South,170,7.0,10.0,75,0.00,,---,0.00,0.00,VWS V14.00,2013-04-16 04:36:00,
2013-04-15 23:40:00,74.8,66.7,29.73,SSE,155,6.0,10.0,76,0.00,,---,0.00,0.00,VWS V14.00,2013-04-16 04:40:00,
2013-04-15 23:44:00,74.7,66.6,29.73,SSE,163,10.0,10.0,76,0.00,,---,0.00,0.00,VWS V14.00,2013-04-16 04:44:00,
2013-04-15 23:48:00,74.8,66.7,29.73,SSE,167,7.0,10.0,76,0.00,,---,0.00,0.00,VWS V14.00,2013-04-16 04:48:00,
2013-04-15 23:52:00,74.6,66.9,29.73,SSE,159,9.0,10.0,77,0.00,,---,0.00,0.00,VWS V14.00,2013-04-16 04:52:00,
2013-04-15 23:56:00,74.5,66.8,29.73,SSE,163,6.0,10.0,77,0.00,,---,0.00,0.00,VWS V14.00,2013-04-16 04:56:00,